Weather History for KANW - December, 2011

Change the Weather History Date:

Monday, December 19, 2011

  Actual Average Record
Temperature  
Mean Temperature 32 °F -  
Max Temperature 39 °F 35 °F 48 °F (2006)
Min Temperature 26 °F 14 °F -9 °F (1996)
Degree Days  
Heating Degree Days 32    
Moisture  
Dew Point 25 °F    
Average Humidity 75    
Maximum Humidity 100    
Minimum Humidity 52    
Precipitation  
Precipitation 0.00 in - - ()
Sea Level Pressure  
Sea Level Pressure 30.14 in    
Wind  
Wind Speed 18 mph (North)    
Max Wind Speed 28 mph    
Max Gust Speed 34 mph    
Visibility 10 miles    
Events      
Averages and records for this station are not official NWS values.
T = Trace of Precipitation, MM = Missing Value Source: NWS Daily Summary

Daily Weather History Graph

Daily Weather History Graph

Search for Another Location

Airport or City:

Trip Planner

Search our weather history database for the weather conditions in past years. The results will help you decide how hot, cold, wet, or windy it might be!

Date:

Astronomy

Dec. 19, 2011 Rise Set
Actual Time 8:05 AM CST 5:08 PM CST
Civil Twilight 7:33 AM CST 5:40 PM CST
Nautical Twilight 6:57 AM CST 6:16 PM CST
Astronomical Twilight 6:23 AM CST 6:50 PM CST
Moon 2:12 AM CST (12/19) 1:12 PM CST (12/19)
Length of Visible Light 10h 07m
Length of Day
9h 03m
Waning Crescent, 31% of the Moon is Illuminated
Dec 19
Waning Crescent
Dec 24
New
Jan 1
First Quarter
Jan 9
Full
Jan 16
Last Quarter

Hourly Weather History & Observations

Time (CST) Temp. Windchill Dew Point Humidity Pressure Visibility Wind Dir Wind Speed Gust Speed Precip Events Conditions
12:15 AM 35.6 °F 26.6 °F 26.6 °F 70% 29.90 in 10.0 mi North 13.8 mph - N/A   Clear
12:35 AM 39.2 °F 29.6 °F 28.4 °F 65% 29.90 in 10.0 mi North 19.6 mph 24.2 mph N/A   Clear
12:55 AM 39.2 °F 29.0 °F 28.4 °F 65% 29.92 in 10.0 mi North 21.9 mph 27.6 mph N/A   Clear
1:15 AM 37.4 °F 27.2 °F 28.4 °F 70% 29.92 in 10.0 mi North 19.6 mph 25.3 mph N/A   Clear
1:35 AM 35.6 °F 25.2 °F 28.4 °F 75% 29.94 in 10.0 mi North 18.4 mph - N/A   Clear
1:55 AM 35.6 °F 24.2 °F 28.4 °F 75% 29.95 in 10.0 mi North 21.9 mph 28.8 mph N/A   Clear
2:15 AM 33.8 °F 22.8 °F 28.4 °F 81% 29.97 in 10.0 mi North 18.4 mph - N/A   Clear
2:35 AM 33.8 °F 22.8 °F 28.4 °F 81% 29.99 in 10.0 mi North 18.4 mph - N/A   Clear
2:55 AM 32.0 °F 18.9 °F 30.2 °F 93% 30.00 in 10.0 mi NNW 24.2 mph 29.9 mph N/A   Mostly Cloudy
3:15 AM 32.0 °F 19.5 °F 30.2 °F 93% 30.02 in 10.0 mi North 21.9 mph 29.9 mph N/A   Overcast
3:35 AM 32.0 °F 19.2 °F 30.2 °F 93% 30.03 in 10.0 mi North 23.0 mph 34.5 mph N/A   Overcast
3:55 AM 32.0 °F 18.4 °F 30.2 °F 93% 30.04 in 10.0 mi North 26.5 mph 34.5 mph N/A   Overcast
4:15 AM 32.0 °F 18.6 °F 30.2 °F 93% 30.06 in 10.0 mi North 25.3 mph 31.1 mph N/A   Overcast
4:35 AM 32.0 °F 20.1 °F 30.2 °F 93% 30.06 in 10.0 mi North 19.6 mph 32.2 mph N/A   Overcast
4:55 AM 32.0 °F 18.1 °F 30.2 °F 93% 30.08 in 10.0 mi North 27.6 mph 33.4 mph N/A   Overcast
5:15 AM 32.0 °F 18.4 °F 30.2 °F 93% 30.08 in 10.0 mi North 26.5 mph 33.4 mph N/A   Overcast
5:35 AM 32.0 °F 20.1 °F 30.2 °F 93% 30.09 in 7.0 mi North 19.6 mph 29.9 mph N/A   Overcast
5:55 AM 32.0 °F 20.1 °F 30.2 °F 93% 30.10 in 5.0 mi North 19.6 mph 25.3 mph N/A   Overcast
6:15 AM 32.0 °F 20.8 °F 30.2 °F 93% 30.11 in 7.0 mi North 17.3 mph 25.3 mph N/A   Overcast
6:35 AM 32.0 °F 21.6 °F 32.0 °F 100% 30.12 in 5.0 mi North 15.0 mph 24.2 mph N/A   Overcast
6:55 AM 32.0 °F 22.1 °F 32.0 °F 100% 30.14 in 5.0 mi North 13.8 mph 19.6 mph N/A   Overcast
7:15 AM 32.0 °F 21.6 °F 32.0 °F 100% 30.15 in 7.0 mi North 15.0 mph 21.9 mph N/A   Overcast
7:35 AM 32.0 °F 20.8 °F 30.2 °F 93% 30.16 in 10.0 mi North 17.3 mph 23.0 mph N/A   Overcast
7:55 AM 32.0 °F 21.6 °F 30.2 °F 93% 30.16 in 10.0 mi North 15.0 mph - N/A   Overcast
8:15 AM 32.0 °F 21.2 °F 28.4 °F 87% 30.17 in 10.0 mi North 16.1 mph - N/A   Overcast
8:35 AM 32.0 °F 20.5 °F 28.4 °F 87% 30.20 in 10.0 mi North 18.4 mph - N/A   Overcast
8:55 AM 32.0 °F 20.1 °F 26.6 °F 80% 30.21 in 10.0 mi North 19.6 mph 24.2 mph N/A   Overcast
9:15 AM 32.0 °F 19.5 °F 26.6 °F 80% 30.22 in 10.0 mi North 21.9 mph 27.6 mph N/A   Overcast
9:35 AM 32.0 °F 19.2 °F 24.8 °F 75% 30.22 in 10.0 mi North 23.0 mph 31.1 mph N/A   Mostly Cloudy
9:55 AM 32.0 °F 19.5 °F 23.0 °F 69% 30.24 in 10.0 mi North 21.9 mph 25.3 mph N/A   Mostly Cloudy
10:15 AM 32.0 °F 20.5 °F 23.0 °F 69% 30.25 in 10.0 mi North 18.4 mph 25.3 mph N/A   Mostly Cloudy
10:35 AM 32.0 °F 19.8 °F 23.0 °F 69% 30.26 in 10.0 mi North 20.7 mph - N/A   Mostly Cloudy
10:55 AM 32.0 °F 20.5 °F 23.0 °F 69% 30.26 in 10.0 mi North 18.4 mph 24.2 mph N/A   Mostly Cloudy
11:15 AM 32.0 °F 20.5 °F 23.0 °F 69% 30.26 in 10.0 mi North 18.4 mph 23.0 mph N/A   Mostly Cloudy
11:35 AM 30.2 °F 17.8 °F 23.0 °F 75% 30.26 in 10.0 mi North 19.6 mph 24.2 mph N/A   Scattered Clouds
11:55 AM 32.0 °F 22.1 °F 23.0 °F 69% 30.25 in 10.0 mi North 13.8 mph 21.9 mph N/A   Scattered Clouds
12:15 PM 32.0 °F 20.8 °F 23.0 °F 69% 30.25 in 10.0 mi North 17.3 mph 21.9 mph N/A   Clear
12:35 PM 33.8 °F 23.5 °F 21.2 °F 60% 30.23 in 10.0 mi NNE 16.1 mph 21.9 mph N/A   Clear
12:55 PM 33.8 °F 23.2 °F 21.2 °F 60% 30.22 in 10.0 mi North 17.3 mph 23.0 mph N/A   Clear
1:15 PM 33.8 °F 23.9 °F 19.4 °F 56% 30.22 in 10.0 mi North 15.0 mph 20.7 mph N/A   Clear
1:35 PM 33.8 °F 23.5 °F 19.4 °F 56% 30.20 in 10.0 mi North 16.1 mph - N/A   Clear
1:55 PM 33.8 °F 22.2 °F 21.2 °F 60% 30.19 in 10.0 mi North 20.7 mph 25.3 mph N/A   Clear
2:15 PM 33.8 °F 22.8 °F 17.6 °F 52% 30.19 in 10.0 mi North 18.4 mph 24.2 mph N/A   Clear
2:35 PM 33.8 °F 23.5 °F 17.6 °F 52% 30.19 in 10.0 mi North 16.1 mph 20.7 mph N/A   Clear
2:55 PM 33.8 °F 24.8 °F 17.6 °F 52% 30.19 in 10.0 mi North 12.7 mph - N/A   Clear
3:15 PM 32.0 °F 24.2 °F 17.6 °F 55% 30.20 in 10.0 mi NNE 9.2 mph - N/A   Clear
3:35 PM 32.0 °F 23.6 °F 17.6 °F 55% 30.21 in 10.0 mi North 10.4 mph - N/A   Clear
3:55 PM 32.0 °F 24.2 °F 17.6 °F 55% 30.21 in 10.0 mi North 9.2 mph - N/A   Clear
4:15 PM 32.0 °F 22.1 °F 17.6 °F 55% 30.21 in 10.0 mi North 13.8 mph - N/A   Clear
4:35 PM 32.0 °F 24.2 °F 17.6 °F 55% 30.22 in 10.0 mi North 9.2 mph - N/A   Clear
4:55 PM 30.2 °F 20.8 °F 19.4 °F 64% 30.24 in 10.0 mi North 11.5 mph - N/A   Clear
5:15 PM 30.2 °F 23.4 °F 17.6 °F 60% 30.26 in 10.0 mi North 6.9 mph - N/A   Clear
5:35 PM 28.4 °F 23.3 °F 17.6 °F 64% 30.26 in 10.0 mi North 4.6 mph - N/A   Clear
5:55 PM 26.6 °F 21.2 °F 17.6 °F 69% 30.26 in 10.0 mi North 4.6 mph - N/A   Clear
6:15 PM 26.6 °F 22.6 °F 17.6 °F 69% 30.26 in 10.0 mi North 3.5 mph - N/A   Clear
6:35 PM 26.6 °F 21.2 °F 17.6 °F 69% 30.25 in 10.0 mi North 4.6 mph - N/A   Clear
6:55 PM 26.6 °F - 17.6 °F 69% 30.25 in 10.0 mi Calm Calm - N/A   Clear
7:15 PM 26.6 °F 21.2 °F 17.6 °F 69% 30.25 in 10.0 mi NNW 4.6 mph - N/A   Clear
7:35 PM 24.8 °F - 17.6 °F 74% 30.25 in 10.0 mi Calm Calm - N/A   Clear
7:55 PM 24.8 °F 20.5 °F 17.6 °F 74% 30.25 in 10.0 mi NW 3.5 mph - N/A   Clear
8:15 PM 24.8 °F 19.1 °F 17.6 °F 74% 30.24 in 10.0 mi NW 4.6 mph - N/A   Clear
8:35 PM 23.0 °F - 17.6 °F 80% 30.23 in 10.0 mi Calm Calm - N/A   Clear
8:55 PM 23.0 °F 18.4 °F 17.6 °F 80% 30.23 in 10.0 mi NW 3.5 mph - N/A   Clear
9:15 PM 23.0 °F - 17.6 °F 80% 30.23 in 10.0 mi Calm Calm - N/A   Clear
9:35 PM 23.0 °F - 17.6 °F 80% 30.24 in 10.0 mi Calm Calm - N/A   Clear
9:55 PM 23.0 °F 18.4 °F 17.6 °F 80% 30.23 in 10.0 mi NW 3.5 mph - N/A   Clear
10:15 PM 23.0 °F - 15.8 °F 74% 30.22 in 10.0 mi Calm Calm - N/A   Clear
10:35 PM 23.0 °F - 17.6 °F 80% 30.22 in 10.0 mi Calm Calm - N/A   Clear
10:55 PM 23.0 °F - 15.8 °F 74% 30.22 in 10.0 mi Calm Calm - N/A   Clear
11:15 PM 23.0 °F - 15.8 °F 74% 30.22 in 10.0 mi Calm Calm - N/A   Clear
11:35 PM 21.2 °F 16.4 °F 15.8 °F 80% 30.22 in 10.0 mi West 3.5 mph - N/A   Clear
11:55 PM 17.6 °F 10.7 °F 12.2 °F 79% 30.22 in 10.0 mi WSW 4.6 mph - N/A   Clear